Flag for Equatorial Guinea Weather past 2 weeks in Ebebiyín, Equatorial Guinea

Now
73 °F

Partly sunny.


Feels Like: 72 °F
Forecast: 69 / 83 °F
Wind: 3 mph from West

Location: Yaounde Airport

Current Time: Mar 6, 2015 at 9:09:55 AM

Latest Report: Mar 6, 2015 at 8:00 AM


Visibility: 4 mi

Pressure: 30.01 "Hg

Humidity: 89%

Dew point: 70 °F

Location of EbebiyínLocation

Historic Weather in Ebebiyín — Graph

°F

Ebebiyín temperature yesterday

Maximum temperature yesterday: 90 °F (at 2:00 PM)
Minimum temperature yesterday: 70 °F (at 7:00 AM)
Average temperature yesterday: 79 °F

Past Weeks' High & Low Weather Summary

 TemperatureHumidityPressure
High91 °F (Feb 25, 4:00 PM)100% (Feb 19, 7:00 AM)30.07 "Hg (Feb 19, 7:00 AM)
Low64 °F (Feb 19, 7:00 AM)27% (Mar 5, 2:00 PM)29.80 "Hg (Feb 25, 4:00 PM)
Average77 °F77%29.94 "Hg
* Reported Feb 19 7:00 AM — Mar 6 7:00 AM, Ebebiyín, Weather by CustomWeather, © 2015

Note: Actual official high and low records may vary slightly from our data, if they occured in-between our weather recording intervals... More about our weather records

Advertising

Ebebiyín weather history for previous 24 hours

 ConditionsComfort  
Time TempWeatherWind HumidityBarometerVisibility
7:00 AM
Fri, Mar 6
72 °FPartly sunny.2 mph94%29.98 "Hg4 mi
6:00 AM72 °FPassing clouds.3 mph88%29.95 "Hg4 mi
5:00 AM72 °FPassing clouds.N/A88%29.95 "Hg5 mi
4:00 AM73 °FPassing clouds.2 mph89%29.98 "Hg5 mi
3:00 AM73 °FPassing clouds.3 mph83%29.95 "Hg4 mi
2:00 AM73 °FPassing clouds.6 mph89%29.95 "Hg4 mi
1:00 AM73 °FPassing clouds.6 mph89%29.98 "Hg4 mi
12:00 AM73 °FPassing clouds.5 mph94%29.98 "Hg4 mi
11:00 PM
Thu, Mar 5
75 °FPassing clouds.3 mph89%29.98 "Hg4 mi
10:00 PM75 °FPassing clouds.5 mph83%29.98 "Hg4 mi
9:00 PM77 °FHaze.5 mph79%29.95 "Hg2 mi
8:00 PM79 °FHaze.5 mph70%29.92 "Hg2 mi
7:00 PM81 °FHaze.5 mph66%29.89 "Hg1 mi
6:00 PM84 °FHaze.6 mph58%29.86 "Hg1 mi
5:00 PM90 °FHaze.5 mph36%29.83 "Hg1 mi
4:00 PM90 °FHaze.7 mph31%29.83 "Hg2 mi
3:00 PM90 °FScattered clouds.8 mph27%29.89 "Hg2 mi
2:00 PM90 °FScattered clouds.8 mph27%29.89 "Hg1 mi
1:00 PM88 °FHaze.3 mph43%29.92 "Hg2 mi
12:00 PM88 °FScattered clouds.2 mph52%29.95 "Hg4 mi
10:00 AM77 °FPartly sunny.8 mph74%30.01 "Hg5 mi
9:00 AM75 °FPartly sunny.5 mph83%30.04 "Hg5 mi
Weather by CustomWeather, © 2015

See weather overviewHow to use our weather pages